GW4602 Weather Reports


time (UTC)temp
C
wind
direction
speed
KPH
gust
KPH
rain 1hr
cm
rain 24hr
cm
rain mn
cm
humidity
%
barometer
mb
20260906110949 18 101 0.0 0.0 0.00 0.00 0.00 99 1017.7
20260906110444 18 103 0.0 0.0 0.00 0.00 0.00 99 1017.7
20260906105943 18 103 0.0 1.6 0.00 0.00 0.00 99 1017.6
20260906105439 18 113 0.0 0.0 0.00 0.00 0.00 99 1017.6
20260906104936 18 109 0.0 0.0 0.00 0.00 0.00 99 1017.6
20260906104434 18 109 0.0 0.0 0.00 0.00 0.00 99 1017.5
20260906103933 18 110 0.0 0.0 0.00 0.00 0.00 99 1017.5
20260906103432 18 122 0.0 0.0 0.00 0.00 0.00 99 1017.5
20260906102927 18 105 0.0 0.0 0.00 0.00 0.00 99 1017.2
20260906102426 18 105 0.0 0.0 0.00 0.00 0.00 99 1017.2
20260906101921 18 105 0.0 0.0 0.00 0.00 0.00 99 1017.3
20260906101416 18 105 0.0 0.0 0.00 0.00 0.00 99 1017.2
20260906100912 18 105 0.0 0.0 0.00 0.00 0.00 99 1017.2
20260906100411 18 105 0.0 0.0 0.00 0.00 0.00 99 1017.2
20260906095906 18 105 0.0 0.0 0.00 0.00 0.00 99 1017.1
20260906095401 18 105 0.0 0.0 0.00 0.00 0.00 99 1017.3
20260906094855 18 105 0.0 1.6 0.00 0.00 0.00 99 1017.2
20260906094350 18 101 1.6 3.2 0.00 0.00 0.00 99 1017.0
20260906093847 18 165 0.0 0.0 0.00 0.00 0.00 99 1017.3
20260906093343 18 242 0.0 0.0 0.00 0.00 0.00 99 1017.1
20260906092842 18 118 0.0 0.0 0.00 0.00 0.00 99 1016.8
20260906092337 18 118 0.0 0.0 0.00 0.00 0.00 99 1016.8
20260906091833 18 112 0.0 0.0 0.00 0.00 0.00 99 1016.8
20260906091329 18 116 3.2 3.2 0.00 0.00 0.00 99 1016.9
20260906090825 18 125 3.2 4.8 0.00 0.00 0.00 99 1016.9
20260906090324 18 107 1.6 4.8 0.00 0.00 0.00 99 1016.5
20260906085824 18 109 0.0 0.0 0.00 0.00 0.00 99 1016.7
20260906085318 18 121 0.0 0.0 0.00 0.00 0.00 99 1016.6
20260906084812 18 112 0.0 1.6 0.00 0.00 0.00 99 1016.6
20260906084312 17 113 0.0 1.6 0.00 0.00 0.00 99 1016.6
20260906083807 17 105 1.6 3.2 0.00 0.00 0.00 99 1016.5
20260906083257 18 114 3.2 3.2 0.00 0.00 0.00 99 1016.6
20260906082751 18 115 3.2 3.2 0.00 0.00 0.00 99 1016.7
20260906082246 18 115 0.0 0.0 0.00 0.00 0.00 99 1016.7
20260906081742 18 119 0.0 0.0 0.00 0.00 0.00 99 1016.7
20260906081237 18 84 0.0 0.0 0.00 0.00 0.00 99 1016.8
20260906080733 18 90 0.0 0.0 0.00 0.00 0.00 99 1016.9
20260906080229 18 111 0.0 0.0 0.00 0.00 0.00 99 1016.7
20260906075723 18 119 3.2 3.2 0.00 0.00 0.00 99 1016.6
20260906075218 18 113 0.0 0.0 0.00 0.00 0.00 99 1016.7
20260906074713 18 123 0.0 0.0 0.00 0.00 0.00 99 1016.9
20260906074213 17 123 0.0 0.0 0.00 0.00 0.00 99 1016.7
20260906073708 17 123 0.0 0.0 0.00 0.00 0.00 99 1016.8
20260906073203 17 131 0.0 0.0 0.00 0.00 0.00 99 1016.4
20260906072658 17 205 0.0 0.0 0.00 0.00 0.00 99 1016.7
20260906072154 17 134 0.0 0.0 0.00 0.00 0.00 99 1016.5
20260906071650 17 133 0.0 0.0 0.00 0.00 0.00 99 1016.8
20260906071149 17 133 0.0 0.0 0.00 0.00 0.00 99 1016.8
20260906070646 17 130 0.0 0.0 0.00 0.00 0.00 99 1016.8
20260906070142 17 136 0.0 0.0 0.00 0.00 0.00 99 1016.8
20260906065641 17 92 0.0 0.0 0.00 0.00 0.00 99 1016.7
20260906065136 18 90 0.0 0.0 0.00 0.00 0.00 99 1017.1
20260906064632 17 91 0.0 0.0 0.00 0.00 0.00 99 1016.9
20260906064126 17 91 0.0 0.0 0.00 0.00 0.00 99 1016.8
20260906063621 17 127 0.0 0.0 0.00 0.00 0.00 99 1016.7
20260906063118 17 127 0.0 0.0 0.00 0.00 0.00 99 1017.0
20260906062613 17 128 0.0 1.6 0.00 0.00 0.00 99 1017.0
20260906062112 17 112 1.6 3.2 0.00 0.00 0.00 99 1017.1
20260906061608 17 136 0.0 0.0 0.00 0.00 0.00 99 1017.1
20260906061108 17 176 0.0 0.0 0.00 0.00 0.00 99 1017.2
20260906060604 17 174 0.0 0.0 0.00 0.00 0.00 99 1017.0
20260906055557 17 222 0.0 0.0 0.00 0.00 0.00 99 1017.1
20260906055052 17 149 0.0 0.0 0.00 0.00 0.00 99 1017.2
20260906054547 17 149 0.0 0.0 0.00 0.00 0.00 99 1017.1
20260906054042 17 156 0.0 0.0 0.00 0.00 0.00 99 1017.0
20260906053538 17 251 0.0 0.0 0.00 0.00 0.00 99 1017.1
20260906053034 17 99 0.0 0.0 0.00 0.00 0.00 99 1016.9
20260906052529 17 100 0.0 3.2 0.00 0.00 0.00 99 1017.0
20260906052026 18 245 0.0 0.0 0.00 0.00 0.00 99 1017.0
20260906051521 17 269 0.0 0.0 0.00 0.00 0.00 99 1017.3
20260906051017 17 126 0.0 0.0 0.00 0.00 0.00 99 1017.3
20260906050512 17 137 3.2 3.2 0.00 0.00 0.00 99 1017.3
20260906050007 18 167 0.0 0.0 0.00 0.00 0.00 99 1017.4
20260906045505 18 167 0.0 0.0 0.00 0.00 0.00 99 1017.4
20260906045001 18 167 0.0 0.0 0.00 0.00 0.00 99 1017.0
20260906044455 18 163 0.0 0.0 0.00 0.00 0.00 99 1017.0
20260906043952 18 218 0.0 0.0 0.00 0.00 0.00 99 1017.0
20260906043447 18 232 0.0 0.0 0.00 0.00 0.00 99 1016.7
20260906042943 18 265 0.0 0.0 0.00 0.00 0.00 99 1016.9
20260906042442 18 265 0.0 0.0 0.00 0.00 0.00 99 1017.0
20260906041936 18 225 0.0 0.0 0.00 0.00 0.00 99 1017.0
20260906041432 18 126 0.0 4.8 0.00 0.00 0.00 99 1017.1
20260906040927 18 307 0.0 0.0 0.00 0.00 0.00 99 1017.0
20260906040422 18 272 0.0 0.0 0.00 0.00 0.00 99 1017.2
20260906035917 18 272 0.0 0.0 0.00 0.00 0.00 99 1017.4
20260906035413 18 230 0.0 0.0 0.00 0.00 0.00 99 1017.5
20260906034908 18 230 0.0 0.0 0.00 0.00 0.00 99 1017.9
20260906034402 18 87 0.0 0.0 0.00 0.00 0.00 99 1017.7
20260906033858 18 87 0.0 0.0 0.00 0.00 0.00 99 1017.9
20260906033357 18 80 0.0 0.0 0.00 0.00 0.00 99 1017.6
20260906032854 18 80 0.0 0.0 0.00 0.00 0.00 99 1017.9
20260906032350 18 80 0.0 0.0 0.00 0.00 0.00 99 1017.7
20260906031844 18 80 0.0 0.0 0.00 0.00 0.00 99 1017.9
20260906031340 18 80 0.0 0.0 0.00 0.00 0.00 99 1017.7
20260906030840 18 80 0.0 0.0 0.00 0.00 0.00 99 1017.6
20260906030335 18 80 0.0 0.0 0.00 0.00 0.00 99 1017.6
20260906025834 18 80 0.0 0.0 0.00 0.00 0.00 99 1017.5
20260906025329 18 80 0.0 0.0 0.00 0.00 0.00 99 1017.7
20260906024827 18 80 0.0 0.0 0.00 0.00 0.00 99 1017.9
20260906024326 18 80 0.0 0.0 0.00 0.00 0.00 99 1017.7
20260906023823 18 80 0.0 0.0 0.00 0.00 0.00 99 1017.3
20260906023318 19 80 0.0 0.0 0.00 0.00 0.00 99 1017.5
20260906022814 19 80 0.0 0.0 0.00 0.00 0.00 99 1017.5
20260906022308 19 80 0.0 0.0 0.00 0.00 0.00 99 1017.5
20260906021804 19 80 0.0 0.0 0.00 0.00 0.00 99 1017.5
20260906021303 19 35 0.0 0.0 0.00 0.00 0.00 99 1017.4
20260906020758 19 35 0.0 0.0 0.00 0.00 0.00 99 1017.4
20260906020258 19 35 0.0 0.0 0.00 0.00 0.00 99 1017.5
20260906015758 19 35 0.0 0.0 0.00 0.00 0.00 99 1017.6
20260906015256 19 35 0.0 0.0 0.00 0.00 0.00 99 1017.5
20260906014751 20 35 0.0 0.0 0.00 0.00 0.00 99 1017.4
20260906014247 20 30 0.0 0.0 0.00 0.00 0.00 99 1017.5
20260906013743 20 24 0.0 0.0 0.00 0.00 0.00 99 1017.4
20260906013243 20 13 0.0 0.0 0.00 0.00 0.00 98 1017.3
20260906012738 20 13 0.0 0.0 0.00 0.00 0.00 97 1017.1
20260906012233 20 13 0.0 0.0 0.00 0.00 0.00 98 1017.0
20260906011729 20 11 0.0 0.0 0.00 0.00 0.00 97 1017.2
20260906011228 20 11 0.0 0.0 0.00 0.00 0.00 97 1017.1
20260906010724 20 2 0.0 0.0 0.00 0.00 0.00 97 1017.1
20260906010220 20 315 0.0 0.0 0.00 0.00 0.00 97 1016.8
20260906005721 20 243 0.0 0.0 0.00 0.00 0.00 96 1016.8
20260906005214 21 179 0.0 0.0 0.00 0.00 0.00 96 1016.7
20260906004713 21 73 1.6 3.2 0.00 0.00 0.00 96 1016.6
20260906004208 21 129 1.6 3.2 0.00 0.00 0.00 95 1016.6
20260906003703 21 192 0.0 0.0 0.00 0.00 0.00 95 1016.7
20260906003159 21 195 0.0 0.0 0.00 0.00 0.00 94 1016.7
20260906002659 21 237 0.0 0.0 0.00 0.00 0.00 93 1016.7
20260906002154 21 264 0.0 0.0 0.00 0.00 0.00 93 1016.8
20260906001649 21 251 0.0 0.0 0.00 0.00 0.00 92 1016.5
20260906001149 22 213 0.0 0.0 0.00 0.00 0.00 91 1016.5
20260906000645 22 206 1.6 1.6 0.00 0.00 0.00 91 1016.5
20260906000140 22 224 0.0 0.0 0.00 0.00 0.00 89 1016.5
20260905235639 22 222 0.0 0.0 0.00 0.00 0.00 88 1016.5
20260905235134 23 226 0.0 0.0 0.00 0.00 0.00 87 1016.4
20260905234630 23 238 0.0 0.0 0.00 0.00 0.00 85 1016.4
20260905234126 23 209 0.0 0.0 0.00 0.00 0.00 84 1016.6
20260905233625 23 231 0.0 0.0 0.00 0.00 0.00 81 1016.5
20260905233120 23 225 3.2 3.2 0.00 0.00 0.00 81 1016.5
20260905232615 24 242 1.6 4.8 0.00 0.00 0.00 81 1016.5
20260905232106 25 236 3.2 3.2 0.00 0.00 0.00 78 1016.6
20260905231601 25 229 1.6 3.2 0.00 0.00 0.00 78 1016.5
20260905231057 25 229 0.0 0.0 0.00 0.00 0.00 77 1016.4
20260905230556 25 250 0.0 0.0 0.00 0.00 0.00 75 1016.6
20260905230054 26 231 0.0 1.6 0.00 0.00 0.00 75 1016.4
20260905225554 26 235 0.0 0.0 0.00 0.00 0.00 74 1016.5
20260905225049 26 224 0.0 0.0 0.00 0.00 0.00 72 1016.5
20260905224549 26 274 0.0 1.6 0.00 0.00 0.00 70 1016.6
20260905224049 26 29 0.0 3.2 0.00 0.00 0.00 70 1016.6
20260905223547 27 302 1.6 1.6 0.00 0.00 0.00 70 1016.6
20260905223042 27 299 0.0 1.6 0.00 0.00 0.00 69 1016.7
20260905222537 27 288 0.0 0.0 0.00 0.00 0.00 68 1016.7
20260905222032 27 288 1.6 3.2 0.00 0.00 0.00 67 1016.2
20260905221529 27 355 4.8 9.7 0.00 0.00 0.00 66 1016.2
20260905221024 27 319 4.8 9.7 0.00 0.00 0.00 66 1016.2
20260905220520 27 250 1.6 6.4 0.00 0.00 0.00 66 1016.1
20260905220016 27 327 1.6 4.8 0.00 0.00 0.00 67 1016.2
20260905215510 27 359 1.6 6.4 0.00 0.00 0.00 65 1016.1
20260905215006 28 261 0.0 0.0 0.00 0.00 0.00 66 1015.8
20260905214501 28 222 0.0 3.2 0.00 0.00 0.00 68 1015.9
20260905213956 28 340 0.0 1.6 0.00 0.00 0.00 66 1015.9
20260905213452 28 323 1.6 4.8 0.00 0.00 0.00 66 1015.8
20260905212947 28 301 1.6 1.6 0.00 0.00 0.00 66 1015.8
20260905212442 28 349 0.0 1.6 0.00 0.00 0.00 66 1015.8
20260905211941 29 19 0.0 3.2 0.00 0.00 0.00 66 1015.7
20260905211437 29 337 1.6 6.4 0.00 0.00 0.00 63 1015.9
20260905210932 29 262 0.0 3.2 0.00 0.00 0.00 63 1015.8
20260905210432 29 314 3.2 3.2 0.00 0.00 0.00 62 1015.5
20260905205931 30 344 1.6 4.8 0.00 0.00 0.00 60 1015.7
20260905205426 30 204 1.6 3.2 0.00 0.00 0.00 64 1015.4
20260905204925 30 274 0.0 4.8 0.00 0.00 0.00 63 1015.7
20260905204422 30 294 0.0 4.8 0.00 0.00 0.00 62 1015.5
20260905203920 30 323 4.8 6.4 0.00 0.00 0.00 63 1015.5
20260905203416 29 342 1.6 3.2 0.00 0.00 0.00 64 1015.5
20260905202912 29 309 3.2 4.8 0.00 0.00 0.00 63 1015.8
20260905202407 29 347 3.2 4.8 0.00 0.00 0.00 63 1015.5
20260905201902 30 307 4.8 4.8 0.00 0.00 0.00 63 1015.7
20260905201357 29 292 1.6 4.8 0.00 0.00 0.00 66 1015.8
20260905200851 30 315 1.6 3.2 0.00 0.00 0.00 62 1015.5
20260905200347 29 317 1.6 3.2 0.00 0.00 0.00 64 1015.5
20260905195845 29 22 3.2 6.4 0.00 0.00 0.00 68 1015.9
20260905195341 29 330 0.0 1.6 0.00 0.00 0.00 64 1015.9
20260905194836 29 24 4.8 12.9 0.00 0.00 0.00 64 1016.2
20260905194336 30 273 3.2 4.8 0.00 0.00 0.00 64 1016.2
20260905193835 30 7 0.0 1.6 0.00 0.00 0.00 67 1016.1
20260905193330 29 32 1.6 4.8 0.00 0.00 0.00 64 1016.3
20260905192826 30 328 6.4 9.7 0.00 0.00 0.00 64 1016.3
20260905192322 29 258 0.0 3.2 0.00 0.00 0.00 65 1016.3
20260905191821 30 43 3.2 4.8 0.00 0.00 0.00 62 1016.4
20260905191320 30 289 3.2 4.8 0.00 0.00 0.00 61 1016.5
20260905190819 29 169 3.2 4.8 0.00 0.00 0.00 62 1016.5
20260905190319 29 356 3.2 3.2 0.00 0.00 0.00 67 1016.5
20260905185818 29 296 0.0 4.8 0.00 0.00 0.00 67 1016.4
20260905185313 29 237 1.6 4.8 0.00 0.00 0.00 73 1016.7
20260905184812 28 244 0.0 3.2 0.00 0.00 0.00 71 1016.9
20260905184311 28 245 0.0 3.2 0.00 0.00 0.00 77 1016.8
20260905183810 28 148 0.0 3.2 0.00 0.00 0.00 78 1017.0
20260905183306 27 141 0.0 3.2 0.00 0.00 0.00 75 1017.0
20260905182800 27 189 0.0 3.2 0.00 0.00 0.00 73 1017.0
20260905182259 28 262 0.0 3.2 0.00 0.00 0.00 73 1017.1
20260905181755 28 268 3.2 3.2 0.00 0.00 0.00 74 1017.2
20260905181254 28 254 4.8 6.4 0.00 0.00 0.00 72 1017.2
20260905180749 27 198 0.0 1.6 0.00 0.00 0.00 75 1017.5
20260905180244 27 197 1.6 4.8 0.00 0.00 0.00 78 1017.7
20260905175739 28 213 8.0 12.9 0.00 0.00 0.00 77 1017.9
20260905175239 27 265 0.0 4.8 0.00 0.00 0.00 81 1018.0
20260905174734 27 245 3.2 6.4 0.00 0.00 0.00 78 1018.0
20260905174229 26 202 3.2 6.4 0.00 0.00 0.00 80 1018.2
20260905173720 26 265 0.0 1.6 0.00 0.00 0.00 84 1018.4
20260905173215 26 112 0.0 0.0 0.00 0.00 0.00 83 1018.4
20260905172714 25 219 3.2 4.8 0.00 0.00 0.00 83 1018.3
20260905172209 25 213 8.0 9.7 0.00 0.00 0.00 84 1018.5
20260905171705 25 226 1.6 3.2 0.00 0.00 0.00 83 1018.5
20260905171201 25 4 0.0 3.2 0.00 0.00 0.00 86 1018.3
20260905170658 25 199 1.6 6.4 0.00 0.00 0.00 86 1018.2
20260905170158 24 222 0.0 4.8 0.00 0.00 0.00 89 1018.3
20260905165657 23 229 4.8 9.7 0.00 0.00 0.00 89 1018.5
20260905165152 23 232 4.8 6.4 0.00 0.00 0.00 90 1018.4
20260905164647 24 233 8.0 9.7 0.00 0.00 0.00 89 1018.2
20260905164147 23 300 4.8 4.8 0.00 0.00 0.00 87 1018.1
20260905163643 23 286 3.2 6.4 0.00 0.00 0.00 90 1018.3
20260905163139 23 322 9.7 16.1 0.00 0.00 0.00 88 1017.5
20260905162635 23 215 6.4 6.4 0.00 0.00 0.00 88 1017.6
20260905162134 23 289 1.6 4.8 0.00 0.00 0.00 88 1018.0
20260905161629 23 341 1.6 3.2 0.00 0.00 0.00 88 1018.0
20260905161127 23 323 6.4 9.7 0.00 0.00 0.00 88 1018.3
20260905160627 23 207 6.4 6.4 0.00 0.00 0.00 88 1018.0
20260905160121 23 238 4.8 9.7 0.00 0.00 0.00 87 1018.7
20260905155620 24 209 3.2 6.4 0.00 0.00 0.00 87 1018.8
20260905155119 24 212 0.0 6.4 0.00 0.00 0.00 88 1018.9
20260905154614 24 95 0.0 0.0 0.00 0.00 0.00 88 1019.2
20260905154109 24 65 0.0 1.6 0.00 0.00 0.00 89 1019.3
20260905153605 24 238 0.0 0.0 0.00 0.00 0.00 90 1019.3
20260905153100 23 115 0.0 0.0 0.00 0.00 0.00 89 1019.5
20260905152555 23 24 0.0 0.0 0.00 0.00 0.00 93 1019.7
20260905152050 22 22 0.0 1.6 0.00 0.00 0.00 94 1019.9
20260905151545 22 40 1.6 1.6 0.00 0.00 0.00 96 1020.4
20260905151040 22 321 0.0 1.6 0.00 0.00 0.00 98 1019.8
20260905150535 21 287 0.0 0.0 0.00 0.00 0.00 99 1019.9
20260905150033 21 251 0.0 0.0 0.00 0.00 0.00 99 1019.9
20260905145526 21 246 0.0 3.2 0.00 0.00 0.00 99 1019.8
20260905145020 21 300 0.0 0.0 0.00 0.00 0.00 99 1019.7
20260905144515 20 105 1.6 6.4 0.00 0.00 0.00 99 1019.5
20260905144014 20 130 0.0 0.0 0.00 0.00 0.00 99 1019.6
20260905143514 20 329 0.0 0.0 0.00 0.00 0.00 99 1019.7
20260905143009 20 321 0.0 0.0 0.00 0.00 0.00 99 1019.6
20260905142507 20 341 0.0 0.0 0.00 0.00 0.00 99 1019.8
20260905142003 20 350 0.0 4.8 0.00 0.00 0.00 99 1019.6
20260905141457 19 104 4.8 6.4 0.00 0.00 0.00 99 1019.8
20260905140954 19 91 1.6 4.8 0.00 0.00 0.00 99 1019.6
20260905140449 20 218 1.6 1.6 0.00 0.00 0.00 99 1019.8
20260905135947 19 210 0.0 3.2 0.00 0.00 0.00 99 1020.1
20260905135443 19 188 0.0 1.6 0.00 0.00 0.00 99 1020.1
20260905134939 19 49 1.6 4.8 0.00 0.00 0.00 99 1020.1
20260905134438 19 125 0.0 0.0 0.00 0.00 0.00 99 1019.0
20260905133937 20 113 0.0 0.0 0.00 0.00 0.00 99 1019.0
20260905133432 19 97 0.0 0.0 0.00 0.00 0.00 99 1018.9
20260905132931 20 93 0.0 0.0 0.00 0.00 0.00 99 1018.7
20260905132426 20 227 0.0 0.0 0.00 0.00 0.00 99 1018.6
20260905131921 20 59 0.0 0.0 0.00 0.00 0.00 99 1018.7
20260905131417 19 61 0.0 0.0 0.00 0.00 0.00 99 1018.5
20260905130912 19 79 0.0 0.0 0.00 0.00 0.00 99 1018.7
20260905130411 19 19 0.0 0.0 0.00 0.00 0.00 99 1018.5
20260905125906 19 111 0.0 0.0 0.00 0.00 0.00 99 1018.6
20260905125401 19 118 0.0 0.0 0.00 0.00 0.00 99 1018.6
20260905124857 19 199 0.0 0.0 0.00 0.00 0.00 99 1018.6
20260905124353 19 91 0.0 0.0 0.00 0.00 0.00 99 1018.6
20260905123853 18 111 0.0 0.0 0.00 0.00 0.00 99 1018.8
20260905123350 18 108 0.0 0.0 0.00 0.00 0.00 99 1018.7
20260905122850 19 149 0.0 0.0 0.00 0.00 0.00 99 1018.5
20260905122344 18 237 0.0 0.0 0.00 0.00 0.00 99 1018.7
20260905121839 18 139 0.0 0.0 0.00 0.00 0.00 99 1018.8
20260905121336 18 99 0.0 3.2 0.00 0.00 0.00 99 1018.8
20260905120834 18 111 1.6 4.8 0.00 0.00 0.00 99 1018.6
20260905120329 18 124 0.0 0.0 0.00 0.00 0.00 99 1018.4
20260905115824 18 107 0.0 0.0 0.00 0.00 0.00 99 1018.5
20260905115323 18 104 0.0 0.0 0.00 0.00 0.00 99 1018.5
20260905114823 18 152 0.0 0.0 0.00 0.00 0.00 99 1018.4
20260905114322 18 107 0.0 0.0 0.00 0.00 0.00 99 1018.4
20260905113821 18 107 1.6 1.6 0.00 0.00 0.00 99 1018.3
20260905113317 18 110 0.0 0.0 0.00 0.00 0.00 99 1018.3
20260905112813 18 115 0.0 0.0 0.00 0.00 0.00 99 1018.4
20260905112307 18 104 0.0 3.2 0.00 0.00 0.00 99 1018.4
20260905111802 18 101 3.2 3.2 0.00 0.00 0.00 99 1018.4
20260905111257 18 123 1.6 3.2 0.00 0.00 0.00 99 1018.3